User: anonymous   Login
Location: Unspecified
(0.0000°N, 0.0000°E)
Time: 20:24:30
(UTC+00:00)
Language:

TOPSAT - Orbit

View from above orbital plane
View from above orbital plane
View from above satellite
View from above satellite

Ground track
Ground track

The orbit data is extracted from the following two-line orbital elements,

1 28891U 05043B   19047.39370473 -.00000037  00000-0  16447-5 0  9995
2 28891  97.9664 187.4979 0017957  42.2834 317.9739 14.61363960709327
Epoch (UTC): 16 February 2019 09:26:56
Eccentricity: 0.0017957
inclination: 97.9664°
perigee height: 676 km
apogee height: 701 km
right ascension of ascending node: 187.4979°
argument of perigee: 42.2834°
revolutions per day: 14.61363960
mean anomaly at epoch: 317.9739°
orbit number at epoch: 70932

The dashed part of the orbit path shows where the satellite is in the earth's shadow,  

DLR